Photometre #846[NE_1.6_Dp] Watnall_MO AOT

File : 20210609_846.hum

09/06/2021,04:54:15,TEMP=13.5,BA=5.48,STAT.A,ExtBa=13.10
09/06/2021,04:59:00,TEMP=13.9,BA=5.48,STAT.A,ExtBa=13.00
09/06/2021,05:04:30,TEMP=14.2,BA=5.32,STAT.A,ExtBa=12.90
09/06/2021,05:10:58,TEMP=14.4,BA=5.48,STAT.A,ExtBa=12.90
09/06/2021,05:18:39,TEMP=14.8,BA=5.48,STAT.A,ExtBa=12.90
09/06/2021,05:27:58,TEMP=15.0,BA=5.32,STAT.A,ExtBa=12.90
09/06/2021,05:39:23,TEMP=15.3,BA=5.40,STAT.D,ExtBa=13.00
09/06/2021,05:41:24,TEMP=15.8,BA=5.36,STAT.B,ExtBa=12.90
09/06/2021,05:45:01,TEMP=15.7,BA=5.36,STAT.A,ExtBa=12.90
09/06/2021,05:51:05,TEMP=15.8,BA=5.52,STAT.A,ExtBa=12.90
09/06/2021,05:57:50,TEMP=16.1,BA=5.52,STAT.A,ExtBa=12.90
09/06/2021,06:05:26,TEMP=16.4,BA=5.44,STAT.A,ExtBa=13.00
09/06/2021,06:14:04,TEMP=16.8,BA=5.56,STAT.C,ExtBa=13.00
09/06/2021,06:23:55,TEMP=17.0,BA=5.56,STAT.A,ExtBa=13.00
09/06/2021,06:35:20,TEMP=17.4,BA=5.56,STAT.A,ExtBa=13.00
09/06/2021,06:48:23,TEMP=17.9,BA=5.56,STAT.D,ExtBa=13.00
09/06/2021,06:50:24,TEMP=18.5,BA=5.44,STAT.A,ExtBa=12.90
09/06/2021,07:03:23,TEMP=18.6,BA=5.60,STAT.D,ExtBa=13.00
09/06/2021,07:05:25,TEMP=19.2,BA=5.60,STAT.A,ExtBa=12.90
09/06/2021,07:18:23,TEMP=19.3,BA=5.60,STAT.D,ExtBa=13.00
09/06/2021,07:24:33,TEMP=19.6,BA=5.44,STAT.B,ExtBa=12.90
09/06/2021,07:36:23,TEMP=20.0,BA=5.60,STAT.D,ExtBa=13.00
09/06/2021,07:48:23,TEMP=20.4,BA=5.60,STAT.D,ExtBa=13.00
09/06/2021,08:00:24,TEMP=20.9,BA=5.60,STAT.D,ExtBa=13.00
09/06/2021,08:04:51,TEMP=21.2,BA=5.60,STAT.B,ExtBa=12.90
09/06/2021,08:18:24,TEMP=21.3,BA=5.60,STAT.D,ExtBa=13.00
09/06/2021,08:20:26,TEMP=21.8,BA=5.40,STAT.D,ExtBa=12.90
09/06/2021,08:33:24,TEMP=21.3,BA=5.64,STAT.D,ExtBa=13.00
09/06/2021,08:35:24,TEMP=21.9,BA=5.64,STAT.D,ExtBa=12.90
09/06/2021,08:48:24,TEMP=22.0,BA=5.60,STAT.D,ExtBa=13.00
09/06/2021,08:50:24,TEMP=22.6,BA=5.44,STAT.D,ExtBa=12.90
09/06/2021,09:03:24,TEMP=22.7,BA=5.64,STAT.D,ExtBa=13.00
09/06/2021,09:05:26,TEMP=23.2,BA=5.64,STAT.F,ExtBa=12.90
09/06/2021,09:18:24,TEMP=23.0,BA=5.64,STAT.D,ExtBa=13.00
09/06/2021,09:20:23,TEMP=23.5,BA=5.52,STAT.D,ExtBa=12.90
09/06/2021,09:33:24,TEMP=22.9,BA=5.64,STAT.D,ExtBa=13.00
09/06/2021,09:35:24,TEMP=23.4,BA=5.64,STAT.D,ExtBa=12.90
09/06/2021,09:48:24,TEMP=23.4,BA=5.64,STAT.D,ExtBa=13.00
09/06/2021,09:50:23,TEMP=23.9,BA=5.60,STAT.D,ExtBa=12.90
09/06/2021,10:03:24,TEMP=23.8,BA=5.64,STAT.D,ExtBa=13.00
09/06/2021,10:05:26,TEMP=24.3,BA=5.64,STAT.F,ExtBa=13.00
09/06/2021,10:12:24,TEMP=24.1,BA=5.64,STAT.D,ExtBa=13.00
09/06/2021,10:19:29,TEMP=24.2,BA=5.64,STAT.D,ExtBa=13.10
09/06/2021,10:30:24,TEMP=24.2,BA=5.64,STAT.D,ExtBa=13.30
09/06/2021,10:34:29,TEMP=24.4,BA=5.64,STAT.D,ExtBa=13.30
09/06/2021,10:45:24,TEMP=24.5,BA=5.56,STAT.D,ExtBa=13.60
09/06/2021,10:49:30,TEMP=24.7,BA=5.56,STAT.D,ExtBa=13.60
09/06/2021,11:00:25,TEMP=24.7,BA=5.64,STAT.D,ExtBa=13.70
09/06/2021,11:04:31,TEMP=24.9,BA=5.64,STAT.F,ExtBa=13.80
09/06/2021,11:15:24,TEMP=25.1,BA=5.64,STAT.D,ExtBa=13.90
09/06/2021,11:19:30,TEMP=25.4,BA=5.64,STAT.D,ExtBa=13.90
09/06/2021,11:30:25,TEMP=25.6,BA=5.64,STAT.D,ExtBa=14.00
09/06/2021,11:34:29,TEMP=25.6,BA=5.64,STAT.D,ExtBa=14.00
09/06/2021,11:45:25,TEMP=25.6,BA=5.64,STAT.D,ExtBa=14.10
09/06/2021,11:49:30,TEMP=25.7,BA=5.64,STAT.D,ExtBa=14.10
09/06/2021,12:00:25,TEMP=25.8,BA=5.64,STAT.D,ExtBa=14.20
09/06/2021,12:04:31,TEMP=26.0,BA=5.64,STAT.F,ExtBa=14.10
09/06/2021,12:15:25,TEMP=26.0,BA=5.64,STAT.D,ExtBa=14.20
09/06/2021,12:19:30,TEMP=26.2,BA=5.64,STAT.D,ExtBa=14.20
09/06/2021,12:30:24,TEMP=26.4,BA=5.64,STAT.D,ExtBa=14.20
09/06/2021,12:34:30,TEMP=26.8,BA=5.64,STAT.D,ExtBa=14.20
09/06/2021,12:45:25,TEMP=26.8,BA=5.64,STAT.D,ExtBa=14.30
09/06/2021,12:49:30,TEMP=26.9,BA=5.64,STAT.D,ExtBa=14.30
09/06/2021,13:00:25,TEMP=26.8,BA=5.64,STAT.D,ExtBa=14.30
09/06/2021,13:04:31,TEMP=27.0,BA=5.64,STAT.F,ExtBa=14.30
09/06/2021,13:15:24,TEMP=27.0,BA=5.64,STAT.D,ExtBa=14.30
09/06/2021,13:19:29,TEMP=27.2,BA=5.64,STAT.D,ExtBa=14.30
09/06/2021,13:30:24,TEMP=27.1,BA=5.64,STAT.D,ExtBa=14.40
09/06/2021,13:34:29,TEMP=27.3,BA=5.64,STAT.D,ExtBa=14.30
09/06/2021,13:45:24,TEMP=27.0,BA=5.64,STAT.D,ExtBa=14.40
09/06/2021,13:49:29,TEMP=27.1,BA=5.64,STAT.D,ExtBa=14.10
09/06/2021,14:00:24,TEMP=26.9,BA=5.64,STAT.D,ExtBa=13.70
09/06/2021,14:04:31,TEMP=26.8,BA=5.64,STAT.F,ExtBa=13.60
09/06/2021,14:15:24,TEMP=26.2,BA=5.64,STAT.D,ExtBa=13.50
09/06/2021,14:19:29,TEMP=26.0,BA=5.64,STAT.D,ExtBa=13.40
09/06/2021,14:30:24,TEMP=25.4,BA=5.68,STAT.D,ExtBa=13.50
09/06/2021,14:34:29,TEMP=25.5,BA=5.68,STAT.D,ExtBa=13.50
09/06/2021,14:45:24,TEMP=25.3,BA=5.68,STAT.D,ExtBa=13.90
09/06/2021,14:49:29,TEMP=25.7,BA=5.68,STAT.D,ExtBa=13.90
09/06/2021,15:00:24,TEMP=26.4,BA=5.52,STAT.D,ExtBa=13.80
09/06/2021,15:04:30,TEMP=26.4,BA=5.52,STAT.F,ExtBa=13.60
09/06/2021,15:18:24,TEMP=25.4,BA=5.52,STAT.D,ExtBa=13.30
09/06/2021,15:20:23,TEMP=25.8,BA=5.48,STAT.D,ExtBa=13.30
09/06/2021,15:33:24,TEMP=24.8,BA=5.52,STAT.D,ExtBa=13.20
09/06/2021,15:35:23,TEMP=25.2,BA=5.52,STAT.D,ExtBa=13.10
09/06/2021,15:48:24,TEMP=24.1,BA=5.48,STAT.D,ExtBa=13.10
09/06/2021,15:50:23,TEMP=24.4,BA=5.44,STAT.D,ExtBa=13.10
09/06/2021,16:03:24,TEMP=23.8,BA=5.48,STAT.D,ExtBa=13.10
09/06/2021,16:05:24,TEMP=24.2,BA=5.48,STAT.B,ExtBa=13.10
09/06/2021,16:18:24,TEMP=23.6,BA=5.52,STAT.D,ExtBa=13.40
09/06/2021,16:30:23,TEMP=24.3,BA=5.56,STAT.D,ExtBa=13.30
09/06/2021,16:42:23,TEMP=24.0,BA=5.56,STAT.D,ExtBa=13.20
09/06/2021,16:44:27,TEMP=24.4,BA=5.56,STAT.B,ExtBa=13.20
09/06/2021,16:57:23,TEMP=23.7,BA=5.56,STAT.D,ExtBa=13.10
09/06/2021,17:04:09,TEMP=23.6,BA=5.48,STAT.A,ExtBa=13.10
09/06/2021,17:12:23,TEMP=23.5,BA=5.48,STAT.D,ExtBa=13.10
09/06/2021,17:20:14,TEMP=23.3,BA=5.44,STAT.A,ExtBa=13.10
09/06/2021,17:33:23,TEMP=22.9,BA=5.48,STAT.D,ExtBa=13.10
09/06/2021,17:35:22,TEMP=23.3,BA=5.48,STAT.A,ExtBa=13.10
09/06/2021,17:45:04,TEMP=22.6,BA=5.48,STAT.A,ExtBa=13.10
09/06/2021,17:54:55,TEMP=23.2,BA=5.60,STAT.C,ExtBa=13.30
09/06/2021,18:03:32,TEMP=23.4,BA=5.60,STAT.A,ExtBa=13.30
09/06/2021,18:11:08,TEMP=23.7,BA=5.60,STAT.A,ExtBa=13.20
09/06/2021,18:17:53,TEMP=24.2,BA=5.60,STAT.A,ExtBa=13.10
09/06/2021,18:23:57,TEMP=24.1,BA=5.52,STAT.A,ExtBa=13.10
09/06/2021,18:29:26,TEMP=23.8,BA=5.52,STAT.B,ExtBa=13.10
09/06/2021,18:41:00,TEMP=23.2,BA=5.56,STAT.A,ExtBa=13.10
09/06/2021,18:50:21,TEMP=22.6,BA=5.48,STAT.A,ExtBa=13.10
09/06/2021,18:58:02,TEMP=22.4,BA=5.48,STAT.A,ExtBa=13.10
09/06/2021,19:04:30,TEMP=22.0,BA=5.44,STAT.A,ExtBa=13.00
09/06/2021,19:10:00,TEMP=21.8,BA=5.44,STAT.A,ExtBa=13.00
09/06/2021,19:14:45,TEMP=21.6,BA=5.40,STAT.A,ExtBa=13.00